Theta_e
311 310 310 309 309 309 308 308 307 307 306 306 307 308 308 309 309 309 309 310 310 311 311 310 309 307 307 314 314 314 313 317 313 315 318 318 319 320 321 320 321 322 321 321 321 321 321
312 311 310 310 310 309 309 309 308 308 306 306 306 306 308 308 308 308 308 308 309 311 312 311 311 309 309 313 313 313 311 314 313 317 319 318 319 319 319 319 320 320 321 321 320 320 320
312 311 311 311 311 310 309 307 306 306 306 307 307 306 305 304 305 307 308 309 310 309 310 310 311 310 310 313 312 313 311 314 314 318 319 318 319 319 319 319 319 319 320 320 320 319 320
315 312 310 311 310 309 307 306 306 306 306 307 306 304 303 304 306 307 307 308 309 309 310 310 311 312 314 312 313 312 313 316 315 318 318 317 319 319 319 318 318 319 319 320 319 319 320
317 315 312 310 308 308 306 306 307 307 307 306 304 303 303 304 306 307 308 309 309 309 310 311 312 313 315 312 313 314 311 319 318 320 318 318 320 320 318 320 320 320 319 320 319 318 319
320 316 314 312 309 307 306 307 307 308 307 305 302 302 303 304 306 307 307 308 309 309 311 312 315 316 315 315 314 315 315 315 322 321 319 318 319 319 319 320 321 320 320 319 318 318 319
321 318 314 312 310 308 307 308 308 309 308 305 302 303 304 305 306 307 308 307 307 310 307 309 310 317 315 313 314 315 315 317 318 320 320 319 320 320 319 319 319 319 317 317 318 318 319
321 320 318 314 312 311 309 309 309 310 309 305 302 304 305 306 306 305 305 303 300 302 305 306 306 306 308 308 309 313 316 317 317 318 319 320 320 319 319 319 319 319 319 320 320 319 319
320 321 320 318 310 309 310 309 310 310 306 301 301 304 305 304 305 303 303 302 302 306 306 309 309 312 315 313 313 313 316 318 318 318 319 319 319 319 318 319 319 319 320 320 319 319 319
321 320 320 320 317 311 308 309 310 308 304 300 302 304 303 302 302 301 301 301 305 310 315 313 315 316 315 314 316 313 313 317 318 318 318 319 318 318 319 320 319 321 319 319 320 321 322
322 321 319 319 316 312 311 309 310 308 301 300 301 302 301 301 300 300 299 301 308 309 318 311 316 313 311 313 312 314 313 316 317 318 319 319 320 319 319 319 319 320 320 320 321 322 321
322 321 322 319 320 311 308 309 310 306 299 299 301 300 299 300 300 300 299 300 311 311 315 310 310 307 307 308 309 311 314 315 316 316 318 318 318 319 319 319 319 319 320 319 319 320 322
320 322 320 321 319 316 310 310 310 307 299 299 299 298 299 299 300 300 299 306 309 310 309 308 305 305 305 307 306 308 309 311 314 316 318 318 318 318 318 319 320 320 321 322 323 324 323
317 321 322 320 319 317 314 311 309 304 298 297 297 297 297 298 300 299 300 308 306 306 307 305 304 304 304 304 306 306 308 310 312 311 315 315 316 318 319 319 320 321 321 323 325 325 327
320 321 321 322 320 316 311 311 309 297 296 296 296 297 298 299 299 300 302 303 305 305 304 304 303 303 304 304 303 304 306 312 308 306 311 315 316 316 318 319 319 321 322 320 321 321 322
321 321 322 321 319 314 310 311 301 297 303 300 295 297 299 299 297 300 301 303 303 304 303 303 299 302 302 303 302 302 303 304 307 304 305 309 309 312 314 317 318 320 320 321 321 326 326
322 322 321 322 316 311 311 306 300 304 297 294 295 300 301 297 298 300 303 302 303 302 301 300 301 300 300 300 300 300 301 302 304 304 303 308 310 311 312 316 318 320 321 320 321 321 323
323 322 323 319 313 312 309 300 302 305 296 294 295 301 299 296 301 301 301 301 300 300 298 298 299 300 299 299 300 300 300 300 301 302 302 305 311 312 311 313 314 317 320 320 322 322 322
324 324 323 315 312 310 304 306 306 304 296 295 295 297 298 295 302 302 300 300 298 298 298 298 298 298 298 298 299 299 300 300 301 301 301 302 305 308 307 311 315 314 312 311 314 319 322
323 323 318 313 307 308 307 307 306 303 295 294 294 301 297 296 297 299 298 297 297 298 297 296 297 298 299 298 299 300 301 301 299 299 301 303 304 305 306 309 310 312 311 309 310 318 320
320 315 310 305 307 306 307 305 304 295 297 295 294 298 297 300 299 298 296 297 296 296 296 296 297 297 298 299 299 299 300 299 299 299 300 301 302 302 303 305 306 308 308 308 309 309 311
307 307 306 306 306 306 305 304 301 296 294 294 294 296 295 295 297 297 296 296 297 296 296 296 296 296 297 297 298 299 298 299 299 299 301 301 302 302 302 303 304 305 305 306 307 308 309
311 311 310 308 307 306 304 302 298 296 294 295 294 294 296 295 296 297 296 296 296 296 296 296 296 296 297 297 296 296 297 298 299 300 300 300 300 301 301 301 302 303 304 305 305 306 307
310 311 310 308 305 304 302 301 301 299 294 294 294 294 297 297 297 297 296 295 296 296 296 296 296 296 296 296 296 297 297 297 298 299 298 300 300 301 302 301 303 304 304 302 304 305 307
310 310 308 306 304 302 301 301 300 299 295 295 294 294 295 298 296 295 296 296 295 295 296 296 296 296 296 296 298 299 300 299 300 300 300 300 301 301 300 301 301 303 303 302 302 303 306
305 304 304 304 302 302 301 301 300 298 297 296 295 295 294 297 297 296 296 296 297 297 297 296 295 295 295 297 299 300 299 299 299 300 302 300 300 301 300 302 304 303 303 302 303 302 307
305 304 303 303 304 303 302 302 300 299 297 296 296 295 295 296 296 295 297 297 296 297 297 296 295 296 296 298 299 300 300 299 300 299 300 302 303 302 302 302 303 303 303 301 302 306 305
301 302 302 303 304 303 304 302 300 299 298 297 296 296 296 296 296 295 296 296 296 296 297 296 296 297 297 299 301 301 301 300 301 300 300 301 302 303 302 304 304 303 302 302 303 304 303
299 300 300 303 306 302 302 301 300 299 299 298 298 297 297 296 297 296 296 296 296 296 295 295 296 296 296 298 299 300 300 301 301 301 301 301 301 302 304 304 303 301 302 302 303 302 301
Wind_Speed
11 11 10 10 10 10 11 12 13 15 15 15 16 17 18 18 19 18 18 18 18 18 18 18 18 17 13 6 11 13 10 6 12 16 13 12 12 9 8 5 8 13 10 9 12 13 14
13 12 11 11 11 12 13 14 15 15 14 14 15 18 20 21 22 21 21 22 20 19 18 17 16 15 9 9 9 7 6 9 14 17 14 12 7 8 4 6 11 2 7 11 9 15 14
14 13 12 12 12 13 14 15 15 16 15 16 17 20 21 22 23 23 21 21 20 18 17 16 15 13 12 15 14 10 8 10 16 16 12 12 7 9 3 6 9 8 11 12 14 16 13
15 14 13 12 12 13 15 15 15 15 15 16 18 20 21 21 22 21 20 20 20 19 17 14 11 10 8 10 9 8 9 12 16 17 14 11 14 6 6 3 4 9 7 8 4 6 5
17 16 14 14 13 15 15 14 13 13 15 17 18 18 19 20 21 21 20 19 17 15 14 12 9 5 8 6 4 4 10 9 14 14 11 6 9 9 5 10 10 9 12 10 9 5 4
19 18 16 16 15 15 14 13 11 12 14 17 17 16 17 19 21 22 21 18 11 10 8 6 4 4 6 2 3 4 4 10 6 12 9 8 7 9 11 10 11 10 10 9 11 2 7
21 20 19 18 16 15 14 13 12 13 15 17 16 14 15 18 20 21 23 12 7 3 9 8 8 10 11 11 14 3 2 10 6 11 13 14 11 16 19 17 18 13 12 15 15 6 9
25 23 22 21 20 19 17 14 13 13 16 16 14 14 14 16 17 15 17 9 7 7 12 14 15 15 16 18 9 10 10 13 13 15 13 8 19 19 13 11 15 17 18 20 18 12 13
28 27 26 25 23 22 20 16 15 15 15 14 12 12 13 14 12 11 11 13 12 6 5 5 4 2 1 2 2 3 10 8 9 16 17 21 10 9 15 17 16 17 19 20 20 16 19
31 29 29 27 25 23 22 19 17 15 15 12 12 12 12 12 5 11 8 14 12 7 4 2 2 1 4 3 2 4 5 7 6 11 14 16 21 12 11 17 17 18 15 15 15 12 10
33 33 30 29 28 25 24 22 19 15 14 12 11 11 10 8 7 4 8 11 7 4 6 4 3 3 6 3 7 3 1 7 10 8 7 7 7 16 21 22 12 16 5 7 7 11 15
35 34 37 31 32 28 26 22 18 15 14 12 11 10 7 9 10 7 10 6 3 3 6 3 4 6 8 6 9 7 3 4 7 9 17 22 18 12 16 14 18 3 8 2 6 7 13
38 40 36 37 33 31 28 23 19 17 14 12 10 8 7 7 6 7 2 1 4 5 5 5 5 9 11 8 12 11 10 10 10 12 14 14 21 22 17 13 11 16 7 3 6 8 14
38 38 42 38 35 35 28 24 20 18 14 10 7 7 5 5 4 4 3 4 7 4 6 8 8 14 8 13 4 12 9 11 9 12 14 16 18 17 18 26 17 22 17 7 9 12 11
38 38 40 44 42 36 30 27 22 18 12 7 6 5 4 3 1 2 3 4 3 1 2 8 14 10 5 7 11 10 7 5 7 14 6 8 22 14 12 18 22 18 17 16 6 5 9
35 39 42 42 45 39 33 28 22 16 8 9 7 5 4 5 3 5 3 2 2 2 3 4 4 2 11 8 11 11 7 8 5 14 18 5 11 18 18 14 18 22 14 7 5 7 8
32 34 35 53 44 41 36 29 25 18 12 8 7 2 3 2 4 1 1 3 3 3 7 5 1 7 8 15 12 12 8 13 5 11 13 6 6 14 14 12 17 14 14 11 8 10 9
29 30 38 50 45 45 39 32 25 24 15 8 5 2 6 2 0 3 3 4 2 3 5 2 3 8 9 10 15 12 15 14 18 17 15 3 5 10 15 20 12 9 14 20 12 14 13
29 30 44 49 49 47 37 23 23 23 18 13 7 3 7 5 3 3 4 3 1 1 2 2 2 5 8 11 8 5 9 6 15 13 6 8 5 10 15 11 5 4 3 11 11 11 17
25 37 51 53 51 39 23 22 24 26 22 16 8 3 2 2 2 7 7 5 5 4 5 5 6 8 8 12 13 9 13 6 11 18 14 14 13 15 15 14 5 7 2 5 6 5 9
24 42 48 40 31 26 24 18 25 25 20 19 9 3 4 4 5 7 5 9 7 6 5 5 3 5 4 5 12 14 6 12 20 19 16 5 14 19 22 23 22 16 16 8 6 4 6
16 16 14 17 17 16 19 20 28 26 25 19 8 6 4 5 13 9 5 7 7 4 5 4 7 7 8 12 14 17 16 16 13 9 7 5 10 14 19 23 24 26 22 18 13 8 10
24 31 23 25 22 21 21 26 29 25 22 11 11 11 8 10 10 7 6 9 9 6 10 12 6 9 13 17 17 21 22 25 18 14 16 13 10 12 19 21 21 24 22 22 19 16 11
28 32 29 25 24 23 26 30 29 32 29 17 19 14 6 5 9 8 8 10 9 14 11 7 11 11 12 15 21 22 26 30 31 29 30 19 16 12 13 16 20 14 11 8 14 16 18
39 34 26 20 23 24 22 28 28 26 26 23 20 15 9 4 14 10 11 12 10 15 16 15 20 18 16 13 5 6 6 5 13 24 23 21 18 10 11 15 17 8 10 13 11 12 13
6 8 19 25 22 25 23 33 28 27 26 24 21 19 10 7 11 9 15 16 8 7 5 9 11 11 9 5 5 5 7 8 5 4 4 15 17 12 11 12 9 12 7 5 4 11 7
6 11 20 24 22 25 29 33 30 27 27 27 24 22 14 4 5 18 9 12 9 5 4 6 3 7 9 4 5 6 10 5 6 8 6 5 8 18 17 14 10 10 11 1 8 4 11
13 15 17 21 30 28 35 32 30 28 26 30 27 24 22 7 8 15 17 15 10 9 4 1 4 3 3 5 4 4 5 7 9 12 9 8 4 5 12 11 19 9 8 8 5 12 7
15 17 17 12 17 28 31 34 32 31 31 29 28 30 25 15 7 11 19 21 20 15 8 7 5 2 4 3 3 4 7 7 14 14 2 7 7 6 6 10 6 5 2 6 8 7 6
Wind_Direction
348 350 352 351 350 351 351 349 346 346 348 348 348 344 339 336 336 336 333 328 325 320 317 314 314 311 310 282 264 271 262 243 197 191 192 191 194 205 223 221 213 235 248 250 256 268 264
332 333 333 333 336 338 339 339 341 341 343 347 347 341 336 336 334 334 333 329 326 320 314 308 305 301 290 255 270 263 264 225 210 196 193 199 228 216 247 235 233 290 256 258 253 263 262
320 320 321 323 325 329 330 330 333 336 340 345 345 342 340 339 337 336 332 326 321 317 313 306 303 295 278 264 271 258 246 215 212 203 203 207 203 203 213 248 260 273 276 269 253 249 254
315 310 310 311 313 316 321 323 328 334 339 342 344 342 341 339 336 336 332 325 320 316 309 304 302 292 260 277 274 265 243 223 210 212 211 228 213 202 233 270 255 268 263 269 131 164 184
308 303 303 303 308 312 313 318 327 334 337 339 341 342 338 337 335 334 335 330 319 307 301 304 302 280 274 283 298 269 228 218 215 206 202 212 203 232 215 237 260 222 268 244 280 217 200
299 297 293 297 302 302 305 309 316 323 328 333 336 340 336 336 335 336 344 341 325 310 320 317 288 260 241 255 277 295 266 201 196 183 185 201 201 221 231 225 241 273 249 255 265 174 217
288 289 289 287 288 290 293 298 304 315 321 327 330 337 337 336 338 340 345 348 350 313 303 253 270 265 286 266 290 273 245 178 180 202 210 205 217 219 233 225 257 271 278 277 278 258 290
289 283 282 282 282 282 282 283 292 302 312 319 322 329 335 332 333 343 344 42 30 297 306 291 279 271 280 282 264 238 204 191 196 213 211 207 232 239 242 252 238 248 265 272 281 290 273
280 280 278 278 276 277 277 278 285 293 304 311 312 319 328 328 328 343 0 11 353 340 256 292 312 300 22 66 269 297 201 222 225 224 210 230 238 241 222 224 235 241 252 266 276 289 286
271 272 273 272 273 276 275 274 275 284 295 296 303 312 324 335 334 345 6 351 352 354 279 131 120 42 349 337 212 334 209 223 214 254 237 259 260 219 215 235 230 253 252 260 272 279 273
267 268 271 272 267 265 268 267 269 275 279 280 287 295 314 332 325 351 339 340 342 353 283 71 81 61 325 327 324 29 249 216 245 223 197 250 230 228 235 236 218 246 205 247 259 266 278
268 264 261 268 262 260 257 259 263 268 271 277 282 287 312 324 321 315 321 326 332 232 245 70 66 20 3 14 6 333 318 238 265 248 236 254 261 255 249 253 230 223 176 230 266 264 252
266 260 262 257 255 256 251 252 251 255 257 262 269 279 302 307 300 314 348 142 234 238 11 28 352 348 334 338 325 353 324 292 287 290 255 249 243 237 234 239 220 209 201 208 249 226 259
267 257 256 257 249 248 250 240 241 244 245 256 262 277 291 299 304 309 141 214 240 48 16 9 339 321 331 2 14 341 315 300 52 335 272 269 272 221 217 223 215 209 206 180 229 248 256
261 253 252 253 244 239 232 226 232 226 221 226 257 251 260 253 186 130 189 222 344 47 9 354 334 327 320 359 342 346 353 11 45 31 326 312 255 263 268 233 225 207 221 226 254 239 272
259 253 251 252 239 229 222 219 217 213 200 220 221 222 221 158 141 147 231 124 136 36 19 357 314 51 300 326 318 335 304 49 351 31 357 314 289 270 276 282 255 223 206 176 179 216 221
255 248 252 246 222 216 212 204 197 204 191 202 193 170 211 160 152 62 151 81 116 90 36 7 326 281 282 306 285 292 273 303 13 351 338 318 277 274 315 243 238 214 226 226 202 227 231
250 251 247 230 211 208 204 193 195 181 165 178 184 183 190 186 2 38 118 110 101 49 9 301 273 273 275 292 286 273 266 257 317 336 313 285 288 279 289 284 323 290 279 224 207 194 228
248 248 234 208 200 203 193 191 189 181 161 176 183 174 189 186 165 145 123 113 95 146 90 241 247 256 290 280 283 269 278 301 308 306 304 324 272 287 271 245 152 44 7 351 328 304 215
250 237 205 193 191 196 177 192 207 185 175 173 161 164 177 168 107 152 149 160 165 176 232 231 245 256 276 282 270 271 280 294 322 297 286 284 258 252 262 288 318 273 302 75 335 282 252
183 180 178 174 170 174 190 209 205 171 170 180 191 169 186 160 165 151 163 163 167 189 215 246 241 235 287 283 293 273 274 305 300 281 280 264 269 266 258 267 281 265 278 258 244 322 291
124 135 151 166 179 197 229 218 186 174 180 188 163 155 122 101 132 160 185 186 180 165 188 220 245 309 288 271 265 290 296 287 276 276 264 262 272 276 277 270 269 276 274 270 254 232 249
260 266 247 247 227 224 213 199 172 181 187 183 183 155 137 154 171 202 196 169 182 180 232 228 264 294 284 283 293 281 273 271 262 270 267 271 263 267 271 267 269 261 262 260 258 234 222
264 256 237 209 205 208 208 204 178 189 195 194 189 171 144 180 203 200 183 173 183 214 242 237 271 270 271 303 300 280 262 261 262 253 245 249 254 263 270 278 260 261 259 264 264 253 185
254 239 199 199 195 200 194 181 188 198 196 203 197 178 165 175 198 190 193 190 216 241 253 258 269 272 284 292 272 274 252 267 255 243 239 227 236 251 260 269 269 240 233 229 217 242 226
278 228 213 191 205 195 194 189 199 203 202 206 202 202 189 163 212 185 188 203 214 226 253 241 267 278 272 249 249 249 267 290 279 263 215 222 223 228 244 254 252 235 221 161 213 237 161
254 223 220 243 226 212 197 202 207 207 207 208 207 209 202 199 221 172 179 184 190 191 248 262 257 274 247 229 254 253 253 256 269 260 249 221 210 207 219 240 264 262 161 264 216 113 139
288 272 263 252 222 215 207 203 206 212 216 212 214 214 206 216 243 205 204 180 178 206 213 194 297 167 231 238 247 255 247 245 261 264 269 271 277 212 224 229 244 168 165 221 106 139 148
277 281 284 259 218 222 217 211 213 213 216 218 217 218 216 217 250 216 230 223 224 224 249 215 229 206 218 269 280 309 286 290 267 271 283 253 228 267 217 238 13 200 215 197 163 149 154